User: anonymous   Login
Location: Oshawa
(43.9000°N, 78.8670°W)
Time: 09:03:23
(UTC-04:00)
Language:

Iridium 54 - Orbit

View from above orbital plane
View from above orbital plane
View from above satellite
View from above satellite

Ground track
Ground track

The orbit data is extracted from the following two-line orbital elements,

1 25171U 98010C   16145.54691209  .00000002  00000-0 -62959-5 0  9996
2 25171  86.3962 152.8689 0002261  84.0440 276.1014 14.34217744956224
Epoch (UTC): 24 May 2016 13:07:33
Eccentricity: 0.0002261
inclination: 86.3962°
perigee height: 776 km
apogee height: 779 km
right ascension of ascending node: 152.8689°
argument of perigee: 84.0440°
revolutions per day: 14.34217744
mean anomaly at epoch: 276.1014°
orbit number at epoch: 95622

The dashed part of the orbit path shows where the satellite is in the earth's shadow,  

DLR